Date,TemperatureHighF,TemperatureAvgF,TemperatureLowF,DewpointHighF,DewpointAvgF,DewpointLowF,HumidityHigh,HumidityAvg,HumidityLow,PressureMaxIn,PressureMinIn,WindSpeedMaxMPH,WindSpeedAvgMPH,GustSpeedMaxMPH,PrecipitationSumIn
2013-1-1,19,15,11,-100,-100,-100,0,0,100,30.14,29.97,11,6,16,0.00
2013-1-2,22,19,15,-100,-100,-100,0,0,100,30.07,29.98,14,7,17,0.00
2013-1-3,25,22,19,-100,-100,-100,0,0,100,30.03,29.76,14,6,21,0.00
2013-1-4,38,30,20,-100,-100,-100,0,0,100,30.12,29.76,14,-318,21,0.00
2013-1-5,33,28,24,-100,-100,-100,0,0,100,30.15,29.81,17,-116,19,0.00
2013-1-6,33,26,17,-100,-100,-100,0,0,100,30.20,29.78,22,-152,31,0.00
2013-1-7,37,31,17,-100,-100,-100,0,0,100,30.19,29.74,23,-518,29,0.00
2013-1-8,36,33,25,-100,-100,-100,0,0,100,30.08,29.75,25,-517,30,0.00
2013-1-9,36,34,29,-100,-100,-100,0,0,100,30.42,29.72,14,-685,27,0.00
2013-1-10,39,34,25,-100,-100,-100,0,0,100,30.44,29.98,19,-549,23,0.00
2013-1-11,39,37,34,-100,-100,-100,0,0,100,29.99,29.54,25,-705,30,0.00
2013-1-12,44,40,26,-100,-100,-100,0,0,100,29.93,29.43,18,-687,36,0.00
2013-1-13,25,21,20,-100,-100,-100,0,0,100,29.99,29.91,8,5,13,0.00
2013-1-14,23,18,11,-100,-100,-100,0,0,100,30.30,30.22,15,8,17,0.00
2013-1-15,27,17,9,-100,-100,-100,0,0,100,30.32,29.96,16,10,22,0.00
2013-1-16,29,22,13,-100,-100,-100,0,0,100,30.07,29.54,17,10,28,0.00
2013-1-17,12,7,2,-100,-100,-100,0,0,100,30.29,30.07,14,7,25,0.00
2013-1-18,17,9,3,-100,-100,-100,0,0,100,30.31,29.78,15,7,23,0.00
2013-1-19,30,22,13,-100,-100,-100,0,0,100,29.79,29.45,17,7,31,0.00
2013-1-20,11,6,1,-100,-100,-100,0,0,100,30.16,29.71,19,9,33,0.00
2013-1-21,-1,-4,-8,-100,-100,-100,0,0,100,30.13,29.99,11,7,20,0.00
2013-1-22,-1,-7,-9,-100,-100,-100,0,0,100,30.22,30.13,13,8,23,0.00
2013-1-23,11,5,-2,-100,-100,-100,0,0,100,30.35,30.01,16,9,29,0.00
2013-1-24,10,8,2,-100,-100,-100,0,0,100,30.63,30.35,18,8,32,0.00
2013-1-25,19,14,8,-100,-100,-100,0,0,100,30.37,29.92,11,6,15,0.00
2013-1-26,22,20,18,-100,-100,-100,0,0,100,30.36,30.03,17,8,30,0.00
2013-1-27,32,26,21,-100,-100,-100,0,0,100,30.31,29.98,21,10,29,0.00
2013-1-28,32,30,28,-100,-100,-100,0,0,100,29.98,29.85,13,5,14,0.00
2013-1-29,36,33,30,-100,-100,-100,0,0,100,29.89,29.49,17,-627,26,0.00
2013-1-30,32,24,17,-100,-100,-100,0,0,100,29.60,29.40,25,-75,36,0.00
2013-1-31,16,11,9,-100,-100,-100,0,0,100,29.92,29.41,20,10,33,0.00
2013-2-1,9,6,1,-100,-100,-100,0,0,100,30.12,29.94,9,6,21,0.00
2013-2-2,11,6,1,-100,-100,-100,0,0,100,30.11,29.98,10,5,15,0.00
2013-2-3,11,8,4,-100,-100,-100,0,0,100,29.98,29.82,14,7,24,0.00
2013-2-4,16,7,1,-100,-100,-100,0,0,100,30.00,29.88,7,4,13,0.00
2013-2-5,22,13,4,-100,-100,-100,0,0,100,30.02,29.70,12,6,22,0.00
2013-2-6,20,14,7,-100,-100,-100,0,0,100,30.21,30.04,9,5,11,0.00
2013-2-7,24,22,18,-100,-100,-100,0,0,100,30.24,30.18,15,9,24,0.00
2013-2-8,22,19,11,-100,-100,-100,0,0,100,30.39,30.24,15,7,22,0.00
2013-2-9,27,19,11,-100,-100,-100,0,0,100,30.38,30.10,27,11,34,0.00
2013-2-10,32,27,22,-100,-100,-100,0,0,100,30.12,29.44,15,8,20,0.00
2013-2-11,35,28,20,-100,-100,-100,0,0,100,29.81,29.26,17,-407,28,0.00
2013-2-12,25,22,19,-100,-100,-100,0,0,100,29.94,29.75,11,6,16,0.00
2013-2-13,33,25,16,-100,-100,-100,0,0,100,29.75,29.62,13,-20,16,0.00
2013-2-14,30,25,18,-100,-100,-100,0,0,100,29.96,29.65,19,9,29,0.00
2013-2-15,18,13,10,-100,-100,-100,0,0,100,30.17,29.97,15,8,26,0.00
2013-2-16,16,11,8,-100,-100,-100,0,0,100,30.18,30.09,12,7,19,0.00
2013-2-17,22,13,5,-100,-100,-100,0,0,100,30.16,29.95,21,9,27,0.00
2013-2-18,34,29,16,-100,-100,-100,0,0,100,29.95,29.49,21,-366,28,0.00
2013-2-19,30,17,9,-100,-100,-100,0,0,100,29.98,29.39,22,14,38,0.00
2013-2-20,15,13,11,-100,-100,-100,0,0,100,30.41,29.99,20,13,34,0.00
2013-2-21,23,20,16,-100,-100,-100,0,0,100,30.49,30.32,16,9,23,0.00
2013-2-22,24,21,18,-100,-100,-100,0,0,100,30.32,29.83,14,8,17,0.00
2013-2-23,31,25,18,-100,-100,-100,0,0,100,29.84,29.75,12,4,17,0.00
2013-2-24,29,27,26,-100,-100,-100,0,0,100,30.13,29.85,9,5,17,0.00
2013-2-25,34,30,19,-100,-100,-100,0,0,100,30.15,30.10,7,-347,11,0.00
2013-2-26,31,29,26,-100,-100,-100,0,0,100,30.14,29.96,13,5,17,0.00
2013-2-27,31,30,29,-100,-100,-100,0,0,100,29.96,29.83,10,6,15,0.00
2013-2-28,30,26,23,-100,-100,-100,0,0,100,30.24,29.91,19,11,30,0.00
2013-3-1,24,21,19,-100,-100,-100,0,0,100,30.37,30.24,13,8,21,0.00
2013-3-2,21,19,15,-100,-100,-100,0,0,100,30.30,30.20,13,8,20,0.00
2013-3-3,21,18,14,-100,-100,-100,0,0,100,30.17,30.13,12,7,19,0.00
2013-3-4,23,21,18,-100,-100,-100,0,0,100,30.22,30.13,8,4,11,0.00
2013-3-5,29,22,12,-100,-100,-100,0,0,100,30.19,30.14,9,4,17,0.00
2013-3-6,29,26,21,-100,-100,-100,0,0,100,30.34,30.16,11,6,17,0.00
2013-3-7,25,22,19,-100,-100,-100,0,0,100,30.45,30.31,8,4,13,0.00
2013-3-8,37,28,10,-100,-100,-100,0,0,100,30.48,30.27,16,-344,20,0.00
2013-3-9,35,32,26,-100,-100,-100,0,0,100,30.26,29.84,21,-565,27,0.00
2013-3-10,34,34,33,-100,-100,-100,0,0,100,29.84,29.81,16,-786,19,0.00
2013-11-5,46,45,44,-100,-100,-100,0,0,100,30.17,30.09,6,5,12,0.00
2013-11-6,38,36,34,-100,-100,-100,0,0,100,29.96,29.78,8,7,20,0.00
2013-11-7,35,16,33,-100,-100,-100,0,0,100,30.06,29.99,7,4,15,0.00
2013-11-8,39,18,33,-100,-100,-100,0,0,100,30.13,29.99,12,5,16,0.00
2013-11-9,40,35,37,-100,-100,-100,0,0,100,29.82,29.55,20,9,23,0.00
2013-11-10,37,35,33,-100,-100,-100,0,0,100,30.10,29.82,14,8,22,0.00
2013-11-11,36,1,23,-100,-100,-100,0,0,100,30.44,29.94,14,8,28,0.00
2013-11-12,28,1,20,-100,-100,-100,0,0,100,30.54,30.34,12,5,22,0.00
2013-11-15,48,41,38,-100,-100,-100,0,0,100,29.77,29.73,7,-396,12,0.00
2013-11-16,49,38,37,-100,-100,-100,0,0,100,29.79,29.31,23,14,31,0.00
2013-11-17,49,47,45,-100,-100,-100,0,0,100,29.32,29.15,10,6,15,0.00
2013-11-18,38,2,28,-100,-100,-100,0,0,100,30.11,29.24,15,9,27,0.00
2013-11-19,33,1,31,-100,-100,-100,0,0,100,30.31,30.12,20,8,30,0.00
2013-11-20,40,38,35,-100,-100,-100,0,0,100,30.12,30.09,18,15,34,0.00
2013-11-21,38,9,36,-100,-100,-100,0,0,100,30.26,30.08,10,7,21,0.00
2013-11-22,29,1,27,-100,-100,-100,0,0,100,30.38,30.25,14,7,25,0.00
2013-11-23,20,1,11,-100,-100,-100,0,0,100,30.55,30.29,15,9,30,0.00
2013-11-24,20,0,10,-100,-100,-100,0,0,100,30.53,29.93,21,8,32,0.00
2013-11-25,34,2,27,-100,-100,-100,0,0,100,29.93,29.69,29,15,39,0.00
2013-11-26,26,1,17,-100,-100,-100,0,0,100,30.10,29.81,11,6,22,0.00
2013-11-27,23,1,21,-100,-100,-100,0,0,100,30.17,30.07,19,8,34,0.00
2013-11-28,24,1,21,-100,-100,-100,0,0,100,30.39,30.12,6,3,10,0.00
2013-11-29,26,1,17,-100,-100,-100,0,0,100,30.51,30.38,8,-37,10,0.00
2013-11-30,32,24,27,-100,-100,-100,0,0,100,30.05,29.99,12,-195,19,0.00
2013-12-1,33,33,32,-100,-100,-100,0,0,100,30.10,30.06,4,-598,9,0.00
2013-12-2,33,30,28,-100,-100,-100,0,0,100,29.96,29.85,10,6,13,0.00
2013-12-3,29,28,27,-100,-100,-100,0,0,100,29.92,29.88,13,12,18,0.00
2013-12-4,34,30,28,-100,-100,-100,0,0,100,29.93,29.29,17,13,20,0.00
2013-12-5,37,22,10,-100,-100,-100,0,0,100,29.99,29.30,11,-326,20,0.00
2013-12-6,15,9,6,-100,-100,-100,0,0,100,30.32,30.02,10,8,19,0.00
2013-12-7,9,5,2,-100,-100,-100,0,0,100,30.46,30.42,7,6,14,0.00
2013-12-9,14,8,2,-100,-100,-100,0,0,100,29.86,29.74,9,8,17,0.00
2013-12-10,9,9,9,-100,-100,-100,0,0,100,29.88,29.88,9,9,15,0.00
2013-12-11,7,6,3,-100,-100,-100,0,0,100,30.26,30.01,12,8,20,0.00
2013-12-12,12,10,7,-100,-100,-100,0,0,100,30.09,30.04,6,6,13,0.00
2013-12-13,10,8,7,-100,-100,-100,0,0,100,30.35,30.24,6,5,12,0.00
2013-12-14,9,9,8,-100,-100,-100,0,0,100,30.33,30.29,10,7,14,0.00
2013-12-15,16,15,13,-100,-100,-100,0,0,100,29.96,29.70,13,10,23,0.00
2013-12-16,14,9,6,-100,-100,-100,0,0,100,30.05,29.84,7,6,15,0.00
2013-12-17,27,18,10,-100,-100,-100,0,0,100,29.76,29.72,9,6,14,0.00
2013-12-18,19,17,16,-100,-100,-100,0,0,100,29.88,29.66,10,8,15,0.00
2013-12-19,24,21,18,-100,-100,-100,0,0,100,30.02,29.77,14,12,25,0.00
2013-12-20,23,22,20,-100,-100,-100,0,0,100,30.01,29.87,12,7,16,0.00
2013-12-21,20,20,19,-100,-100,-100,0,0,100,29.85,29.83,7,4,8,0.00
2013-12-23,19,17,14,-100,-100,-100,0,0,100,30.32,30.11,11,8,19,0.00
2013-12-24,14,13,12,-100,-100,-100,0,0,100,30.35,30.27,13,8,22,0.00
2013-12-25,15,14,13,-100,-100,-100,0,0,100,30.19,29.95,17,14,21,0.00
2013-12-26,15,15,15,-100,-100,-100,0,0,100,30.11,30.11,4,4,6,0.00
2013-12-27,29,20,11,-100,-100,-100,0,0,100,30.13,29.80,17,11,31,0.00
2013-12-28,33,16,31,-100,-100,-100,0,0,100,29.87,29.76,3,-248,6,0.00
2013-12-29,7,5,3,-100,-100,-100,0,0,100,30.05,29.99,9,7,19,0.00
2013-12-30,5,2,-3,-100,-100,-100,0,0,100,30.14,30.07,6,6,15,0.00
2013-12-31,4,4,4,-100,-100,-100,0,0,100,30.09,30.09,10,10,18,0.00
2014-1-1,5,1,-3,-100,-100,-100,0,0,100,30.40,30.32,6,5,12,0.00
2014-1-2,5,5,5,-100,-100,-100,0,0,100,30.32,30.32,9,9,19,0.00